Location: Unspecified
(49.9820°N, 20.4363°E)
Time: 09:39:24
(UTC+02:00)

ISS - Pass Details

Date: 21 July 2018
Orbit: 402 x 408 km, 51.6° (Epoch: 23 July)

Event Time Altitude Azimuth Distance (km) Brightness Sun altitude
Rises 02:59:34 0° 287° (WNW) 2,333 -0.1 -13.5°
Reaches altitude 10° 03:01:42 10° 281° (W) 1,471 -1.2 -13.3°
Maximum altitude 03:04:51 43° 208° (SSW) 580 -3.5 -13.0°
Drops below altitude 10° 03:08:00 10° 135° (SE) 1,467 -1.1 -12.7°
Sets 03:10:08 0° 129° (SE) 2,325 0.0 -12.5°
